Location: Newark
(50.0306°N, 2.3272°E)
Time: 07:54:13
(UTC+00:00)

Vanguard 1 Rocket - Pass Details

Date: 19 December 2019
Orbit: 650 x 4226 km, 34.3° (Epoch: 21 January)

Event Time Altitude Azimuth Distance (km) Brightness Sun altitude
Rises 22:38:41 0° 269° (W) 7,655 12.3 -60.2°
Reaches altitude 10° 22:45:17 10° 262° (W) 6,083 11.6 -60.7°
Enters shadow 22:50:22 19° 251° (WSW) 4,849 11.0 -61.1°
Maximum altitude 22:58:53 31° 209° (SSW) 3,198 - -61.7°
Drops below altitude 10° 23:06:58 10° 151° (SSE) 3,554 - -62.2°
Sets 23:09:42 0° 140° (SE) 4,174 - -62.4°
